Location: Oso Ridge
(35.0450°N, 108.0864°W)
Time: 04:09:09
(UTC-06:00)

Amateur Radio Satellites - All Passes

Search period start: 28 April 2017 03:39
Search period end: 29 April 2017 03:39
Location: Oso Ridge, 35.0450°N, 108.0864°W

Satellite Date Start Highest point End Downlink Frequencies (MHz)
Time Altitude Azimuth
ITUPSAT 1 28 Apr 03:43:01 03:47:43 61° 259° (W) 03:52:26 437.325
MOZHAYETS 4 28 Apr 04:18:53 04:23:18 52° 260° (W) 04:27:45
KKS-1 28 Apr 04:20:33 04:24:14 26° 70° (ENE) 04:27:55 437.445
ITAMSAT 1 28 Apr 04:35:05 04:40:18 82° 105° (ESE) 04:45:28 435.822/435.867
BEESAT 28 Apr 04:41:26 04:44:03 15° 267° (W) 04:46:39 436.000
STARS 28 Apr 04:48:13 04:51:34 22° 69° (ENE) 04:54:56 437.465
AO-7 28 Apr 04:51:59 05:00:21 78° 106° (ESE) 05:08:40 .
YUBILEINY 28 Apr 05:09:45 05:18:27 80° 277° (W) 05:27:11 435.215
CUBESAT XI-V 28 Apr 05:13:45 05:18:24 85° 258° (WSW) 05:23:05 437.345
KKS-1 28 Apr 05:57:01 06:00:40 24° 264° (W) 06:04:20 437.445
RS-15 28 Apr 06:11:38 06:21:33 32° 103° (ESE) 06:31:43 29.354- 29.394
ITAMSAT 1 28 Apr 06:17:50 06:19:00 11° 298° (WNW) 06:20:10 435.822/435.867
XW-2C 28 Apr 06:21:35 06:23:25 13° 93° (E) 06:25:14 145.795 - 145.815
LilacSat-2 28 Apr 06:22:15 06:24:22 14° 94° (E) 06:26:29 437.200
STARS 28 Apr 06:23:54 06:27:43 28° 263° (W) 06:31:32 437.465
STRAND 1 28 Apr 06:31:12 06:33:23 13° 63° (ENE) 06:35:36 437.568
SO-50 28 Apr 06:34:48 06:39:26 77° 300° (WNW) 06:44:02 436.795
XW-2F 28 Apr 06:44:38 06:47:49 25° 96° (E) 06:50:59 145.980 - 146.000
AO-7 28 Apr 06:46:22 06:52:12 22° 303° (WNW) 06:58:03 .
NUDT-PHONESAT 28 Apr 06:51:04 06:54:08 24° 96° (E) 06:57:12 437.300
M-CUBED/EXP-1 PRIME 28 Apr 06:53:16 06:56:56 24° 64° (ENE) 07:00:38 437.505
DOVE 4 28 Apr 06:56:03 07:00:33 65° 100° (E) 07:04:46 437.250
YUBILEINY 28 Apr 07:12:54 07:16:37 13° 296° (WNW) 07:20:22 435.215
Tancredo 1 28 Apr 07:33:44 07:36:47 63° 135° (SE) 07:39:51 437.200
CUTE-I 28 Apr 07:34:04 07:39:24 83° 104° (ESE) 07:44:43 437.470
XW-2D 28 Apr 07:34:59 07:38:45 59° 284° (WNW) 07:42:30 145.860 - 145.880
CUTE 1.7 + AOD 2 28 Apr 07:39:54 07:42:25 15° 93° (E) 07:44:56 437.475
XW-2B 28 Apr 07:42:01 07:45:43 49° 285° (WNW) 07:49:25 145.730 - 145.750
KAITUO 1B 28 Apr 07:47:27 07:51:09 52° 284° (WNW) 07:54:50 145.475/437.950
XW-2C 28 Apr 07:54:13 07:57:41 33° 287° (WNW) 08:01:08 145.795 - 145.815
LilacSat-2 28 Apr 07:55:16 07:58:42 31° 287° (WNW) 08:02:07 437.200
SEEDS 28 Apr 07:56:40 07:59:06 15° 93° (E) 08:01:32 437.485
HO-68 28 Apr 07:59:39 08:06:07 35° 98° (E) 08:12:33 435.675
STRAND 1 28 Apr 08:06:53 08:11:57 67° 258° (WSW) 08:17:02 437.568
XW-2A 28 Apr 08:07:10 08:10:08 29° 98° (E) 08:13:07 145.665 - 145.685
ISS 28 Apr 08:08:00 08:11:14 69° 319° (NW) 08:14:30 437.550
XW-2F 28 Apr 08:19:09 08:21:45 18° 290° (WNW) 08:24:20 145.980 - 146.000
RS-15 28 Apr 08:21:08 08:33:04 68° 303° (WNW) 08:45:27 29.354- 29.394
NUDT-PHONESAT 28 Apr 08:25:19 08:27:51 18° 290° (WNW) 08:30:23 437.300
M-CUBED/EXP-1 PRIME 28 Apr 08:27:00 08:31:07 32° 258° (WSW) 08:35:18 437.505
UWE-3 28 Apr 08:45:41 08:49:04 23° 96° (E) 08:52:29 435.000/436.395/437.385
AAUSAT CUBESAT 2 28 Apr 08:58:02 09:01:56 36° 98° (E) 09:05:47 437.432
CUBEBUG 2 28 Apr 09:01:59 09:06:09 64° 101° (E) 09:10:23 437.445
FO-29 28 Apr 09:07:03 09:07:49 10° 62° (ENE) 09:08:34 435.910
Tancredo 1 28 Apr 09:11:16 09:12:57 14° 332° (NNW) 09:14:37 437.200
CUTE 1.7 + AOD 2 28 Apr 09:14:23 09:18:20 37° 287° (WNW) 09:22:17 437.475
CUTE-I 28 Apr 09:17:22 09:18:41 11° 299° (WNW) 09:19:59 437.470
O/OREOS (USA 219) 28 Apr 09:21:31 09:24:12 16° 99° (E) 09:26:55 437.305
UNISAT 6 28 Apr 09:22:59 09:24:57 13° 67° (ENE) 09:26:53 437.425
SEEDS 28 Apr 09:30:58 09:34:53 37° 287° (WNW) 09:38:48 437.485
ZACube-1 28 Apr 09:36:26 09:40:36 52° 100° (E) 09:44:49 437.345
XW-2A 28 Apr 09:41:25 09:42:35 11° 291° (WNW) 09:43:45 145.665 - 145.685
AO-73 28 Apr 09:42:12 09:46:23 55° 100° (E) 09:50:38 145.935
HO-68 28 Apr 09:47:14 09:53:46 39° 293° (WNW) 10:00:19 435.675
ISS 28 Apr 09:47:25 09:48:15 11° 336° (NNW) 09:49:03 437.550
PRISM 28 Apr 09:50:23 09:54:19 45° 73° (ENE) 09:58:18 437.425
Oscar 11 28 Apr 09:55:34 09:59:55 65° 101° (ESE) 10:04:13 .
UWE-3 28 Apr 10:22:01 10:25:25 24° 289° (WNW) 10:28:52 435.000/436.395/437.385
AAUSAT CUBESAT 2 28 Apr 10:34:36 10:37:02 15° 292° (WNW) 10:39:28 437.432
TIGRISAT 28 Apr 10:35:00 10:39:24 84° 74° (ENE) 10:43:43 435.000
RS-15 28 Apr 10:39:40 10:48:31 22° 330° (NNW) 10:57:29 29.354- 29.394
PCSat 28 Apr 10:45:47 10:49:37 19° 51° (NE) 10:53:25 145.827
FO-29 28 Apr 10:45:48 10:52:16 86° 75° (ENE) 10:57:58 435.910
UNISAT 6 28 Apr 10:57:00 11:01:14 47° 260° (W) 11:05:25 437.425
O/OREOS (USA 219) 28 Apr 10:58:53 11:03:12 41° 294° (WNW) 11:07:34 437.305
DELFI C3 28 Apr 11:00:22 11:04:22 75° 283° (WNW) 11:08:20 145.870
OBJECT BX 28 Apr 11:13:45 11:17:23 63° 284° (WNW) 11:21:00 145.990 - 145.960
ZACube-1 28 Apr 11:14:59 11:16:25 12° 293° (WNW) 11:17:52 437.345
NANOSAT C BR1 28 Apr 11:15:17 11:17:29 14° 67° (ENE) 11:19:41 145.865
AO-73 28 Apr 11:20:58 11:22:08 11° 294° (WNW) 11:23:18 145.935
AIST 2D 28 Apr 11:23:33 11:26:39 32° 74° (ENE) 11:29:47 435.315
PRISM 28 Apr 11:28:14 11:29:47 12° 267° (W) 11:31:20 437.425
ESTCUBE 1 28 Apr 11:37:40 11:40:15 15° 93° (E) 11:42:50 437.505/2401.250
EO-79 28 Apr 11:42:33 11:46:19 32° 72° (ENE) 11:50:05 145.935-145.965
DUCHIFAT 1 28 Apr 11:42:34 11:46:03 26° 71° (ENE) 11:49:32 145.980
LO-87 28 Apr 12:11:15 12:14:49 79° 101° (ESE) 12:18:20 145.935 - 145.965
AO-85 28 Apr 12:14:53 12:19:11 57° 116° (ESE) 12:23:14 145.980
POLYITAN 1 28 Apr 12:21:53 12:26:06 80° 258° (WSW) 12:30:19 437.675
PCSat 28 Apr 12:28:03 12:33:21 56° 248° (WSW) 12:38:38 145.827
QB50P2 28 Apr 12:28:40 12:32:50 60° 259° (W) 12:37:01 145.880/145.840
SPROUT 28 Apr 12:30:47 12:32:52 13° 93° (E) 12:34:58 437.525
BUGSAT 1 28 Apr 12:36:14 12:39:58 33° 72° (ENE) 12:43:41 437.445
FO-29 28 Apr 12:36:32 12:37:39 10° 267° (W) 12:38:45 435.910
Oscar 19 28 Apr 12:42:48 12:45:48 16° 64° (ENE) 12:48:49 437.125/150
NANOSAT C BR1 28 Apr 12:48:51 12:52:48 40° 261° (W) 12:56:47 145.865
AIST 2D 28 Apr 12:59:13 12:59:58 11° 267° (W) 13:00:42 435.315
Gurwin Techsat 1B 28 Apr 13:00:35 13:03:10 14° 63° (ENE) 13:05:46 435.225
RS-15 28 Apr 13:02:20 13:08:11 14° 7° (N) 13:13:59 29.354- 29.394
ESTCUBE 1 28 Apr 13:12:55 13:17:12 42° 287° (WNW) 13:21:28 437.505/2401.250
BEESAT 3 28 Apr 13:14:19 13:18:00 42° 114° (ESE) 13:21:46 437.485
VELOX 1 28 Apr 13:17:18 13:21:38 53° 100° (E) 13:25:55 145.980
DUCHIFAT 1 28 Apr 13:18:29 13:21:39 21° 264° (W) 13:24:49 145.980
BEESAT 2 28 Apr 13:19:09 13:21:35 16° 109° (ESE) 13:24:03 435.950
EO-79 28 Apr 13:19:22 13:22:06 17° 266° (W) 13:24:51 145.935-145.965
UKube-1 28 Apr 13:26:58 13:29:31 15° 94° (E) 13:32:03 .
AO-85 28 Apr 13:57:55 13:59:49 13° 311° (NW) 14:01:42 145.980
AO-7 28 Apr 13:59:30 14:03:51 16° 53° (NE) 14:08:12 .
Tancredo 1 28 Apr 14:02:20 14:04:32 18° 31° (NNE) 14:06:44 437.200
DX 1 28 Apr 14:02:34 14:06:54 63° 101° (ESE) 14:11:10 434.975-435.025
SPROUT 28 Apr 14:04:57 14:08:56 40° 287° (WNW) 14:12:54 437.525
50 SAT 28 Apr 14:05:30 14:08:55 56° 284° (WNW) 14:12:17 437.505
BUGSAT 1 28 Apr 14:12:52 14:15:23 16° 266° (W) 14:17:52 437.445
Oscar 19 28 Apr 14:19:34 14:24:36 55° 259° (W) 14:29:42 437.125/150
Gurwin Techsat 1B 28 Apr 14:37:13 14:42:29 67° 258° (WSW) 14:47:47 435.225
ISS 28 Apr 14:38:40 14:41:35 29° 36° (NE) 14:44:29 437.550
BEESAT 3 28 Apr 14:53:26 14:55:47 15° 311° (NW) 14:58:09 437.485
BEESAT 2 28 Apr 14:55:25 14:59:01 34° 304° (NW) 15:02:43 435.950
VELOX 1 28 Apr 14:55:48 14:57:34 12° 295° (WNW) 14:59:20 145.980
UKube-1 28 Apr 15:01:40 15:05:39 37° 288° (WNW) 15:09:36 .
BEESAT 28 Apr 15:06:05 15:08:55 16° 94° (E) 15:11:43 436.000
SO-50 28 Apr 15:09:20 15:13:31 37° 55° (NE) 15:17:41 436.795
RS-15 28 Apr 15:15:51 15:26:31 33° 42° (NE) 15:36:44 29.354- 29.394
YUBILEINY 28 Apr 15:24:09 15:32:27 44° 77° (ENE) 15:40:43 435.215
Tancredo 1 28 Apr 15:37:38 15:40:32 38° 227° (SW) 15:43:26 437.200
DX 1 28 Apr 15:42:06 15:42:29 10° 296° (WNW) 15:42:51 434.975-435.025
ITUPSAT 1 28 Apr 15:46:42 15:51:15 43° 99° (E) 15:55:47 437.325
AO-7 28 Apr 15:47:02 15:55:19 79° 70° (ENE) 16:03:36 .
ITAMSAT 1 28 Apr 15:49:42 15:54:53 89° 78° (ENE) 16:00:06 435.822/435.867
ISS 28 Apr 16:15:24 16:17:56 21° 231° (SW) 16:20:29 437.550
MOZHAYETS 4 28 Apr 16:16:54 16:21:20 45° 99° (E) 16:25:45
BEESAT 28 Apr 16:42:19 16:46:51 45° 287° (WNW) 16:51:23 436.000
SO-50 28 Apr 16:50:29 16:53:40 19° 250° (WSW) 16:56:52 436.795
CUBESAT XI-V 28 Apr 17:13:51 17:18:00 30° 97° (E) 17:22:08 437.345
CUTE-I 28 Apr 17:17:11 17:18:36 11° 61° (ENE) 17:20:01 437.470
YUBILEINY 28 Apr 17:21:18 17:28:57 35° 274° (W) 17:36:39 435.215
ITUPSAT 1 28 Apr 17:25:36 17:28:42 17° 294° (WNW) 17:31:48 437.325
RS-15 28 Apr 17:28:06 17:40:14 77° 245° (WSW) 17:51:44 29.354- 29.394
JUGNU 28 Apr 17:30:01 17:33:36 17° 174° (S) 17:37:12 437.505
AO-7 28 Apr 17:43:28 17:48:45 18° 266° (W) 17:54:03 .
KKS-1 28 Apr 17:50:05 17:54:31 80° 102° (ESE) 17:58:56 437.445
MOZHAYETS 4 28 Apr 17:55:23 17:58:04 15° 293° (WNW) 18:00:45
DOVE 4 28 Apr 17:56:52 18:01:57 48° 73° (ENE) 18:06:57 437.250
XW-2D 28 Apr 18:12:56 18:16:22 36° 74° (ENE) 18:19:50 145.860 - 145.880
STARS 28 Apr 18:15:38 18:19:58 64° 101° (E) 18:24:16 437.465
XW-2B 28 Apr 18:19:49 18:23:21 43° 75° (ENE) 18:26:55 145.730 - 145.750
KAITUO 1B 28 Apr 18:24:07 18:27:33 38° 74° (ENE) 18:31:00 145.475/437.950
HO-68 28 Apr 18:26:35 18:31:19 19° 60° (ENE) 18:36:03 435.675
XW-2C 28 Apr 18:31:39 18:35:21 66° 76° (ENE) 18:39:05 145.795 - 145.815
LilacSat-2 28 Apr 18:33:13 18:36:57 74° 77° (ENE) 18:40:43 437.200
NO-84 28 Apr 18:33:49 18:37:34 43° 129° (SE) 18:41:02 435.350 FM
CUBESAT XI-V 28 Apr 18:51:30 18:55:10 23° 291° (WNW) 18:58:50 437.345
CUTE-I 28 Apr 18:52:32 18:57:53 83° 257° (WSW) 19:03:15 437.470
XW-2F 28 Apr 18:55:30 18:59:09 58° 259° (W) 19:02:51 145.980 - 146.000
SRMSAT 28 Apr 18:57:49 19:00:24 13° 167° (SSE) 19:02:59 437.500
NUDT-PHONESAT 28 Apr 19:00:06 19:03:43 63° 260° (W) 19:07:22 437.300
JUGNU 28 Apr 19:18:07 19:21:53 17° 184° (S) 19:25:39 437.505
O/OREOS (USA 219) 28 Apr 19:33:41 19:36:54 19° 60° (ENE) 19:40:05 437.305
DOVE 4 28 Apr 19:36:14 19:39:46 18° 267° (W) 19:43:16 437.250
UWE-3 28 Apr 19:41:05 19:42:59 13° 67° (ENE) 19:44:53 435.000/436.395/437.385
RS-15 28 Apr 19:44:59 19:50:28 14° 264° (W) 19:55:52 29.354- 29.394
AAUSAT CUBESAT 2 28 Apr 19:45:53 19:48:29 16° 68° (ENE) 19:51:07 437.432
XW-2D 28 Apr 19:49:31 19:50:41 11° 268° (W) 19:51:51 145.860 - 145.880
STARS 28 Apr 19:55:34 19:55:43 10° 296° (WNW) 19:55:52 437.465
CUBEBUG 2 28 Apr 19:56:54 20:00:50 34° 73° (ENE) 20:04:42 437.445
KAITUO 1B 28 Apr 20:01:11 20:01:43 10° 268° (W) 20:02:15 145.475/437.950
CUTE 1.7 + AOD 2 28 Apr 20:03:01 20:07:13 84° 256° (WSW) 20:11:28 437.475
XW-2A 28 Apr 20:07:19 20:10:38 58° 260° (W) 20:13:57 145.665 - 145.685
M-CUBED/EXP-1 PRIME 28 Apr 20:09:41 20:12:48 22° 99° (E) 20:15:45 437.505
HO-68 28 Apr 20:11:08 20:18:15 74° 256° (WSW) 20:25:26 435.675
NO-84 28 Apr 20:12:34 20:15:13 18° 322° (NW) 20:17:43 435.350 FM
SEEDS 28 Apr 20:18:34 20:22:45 87° 260° (W) 20:26:58 437.485
STRAND 1 28 Apr 20:20:37 20:25:37 54° 100° (E) 20:30:36 437.568
ZACube-1 28 Apr 20:29:28 20:32:57 26° 71° (ENE) 20:36:24 437.345
AO-73 28 Apr 20:34:53 20:38:24 27° 71° (ENE) 20:41:53 145.935
SRMSAT 28 Apr 20:44:53 20:48:50 18° 177° (S) 20:52:47 437.500
Oscar 11 28 Apr 20:47:11 20:51:00 32° 72° (ENE) 20:54:50 .
AO-85 28 Apr 20:49:34 20:52:25 18° 52° (NE) 20:55:21 145.980
JUGNU 28 Apr 21:08:11 21:10:08 12° 194° (SSW) 21:12:07 437.505
O/OREOS (USA 219) 28 Apr 21:12:13 21:16:24 36° 256° (WSW) 21:20:32 437.305
UWE-3 28 Apr 21:14:58 21:19:03 44° 261° (W) 21:23:04 435.000/436.395/437.385
AAUSAT CUBESAT 2 28 Apr 21:19:54 21:23:38 33° 262° (W) 21:27:25 437.432
CUBEBUG 2 28 Apr 21:34:47 21:37:30 16° 266° (W) 21:40:12 437.445
BEESAT 3 28 Apr 21:36:04 21:37:08 11° 47° (NE) 21:38:11 437.485
DELFI C3 28 Apr 21:42:22 21:46:01 36° 73° (ENE) 21:49:42 145.870
M-CUBED/EXP-1 PRIME 28 Apr 21:43:59 21:47:08 22° 296° (WNW) 21:50:06 437.505
OBJECT BX 28 Apr 21:48:26 21:51:37 29° 73° (ENE) 21:54:49 145.990 - 145.960
STRAND 1 28 Apr 22:01:19 22:04:19 16° 295° (WNW) 22:07:17 437.568
ZACube-1 28 Apr 22:06:03 22:09:10 20° 265° (W) 22:12:17 437.345
AO-73 28 Apr 22:11:34 22:14:35 19° 265° (W) 22:17:36 145.935
Oscar 11 28 Apr 22:24:15 22:27:09 18° 266° (W) 22:30:04 .
AO-85 28 Apr 22:29:10 22:32:50 33° 246° (WSW) 22:36:40 145.980
TIGRISAT 28 Apr 22:30:11 22:33:29 21° 96° (E) 22:36:49 435.000
SRMSAT 28 Apr 22:33:42 22:37:17 16° 188° (S) 22:40:53 437.500
LO-87 28 Apr 22:44:51 22:47:25 19° 71° (ENE) 22:50:00 145.935 - 145.965
UNISAT 6 28 Apr 22:51:31 22:55:36 41° 99° (E) 22:59:45 437.425
PRISM 28 Apr 23:09:46 23:13:53 68° 285° (WNW) 23:17:57 437.425
BEESAT 3 28 Apr 23:11:09 23:15:08 67° 244° (WSW) 23:19:04 437.485
BEESAT 2 28 Apr 23:15:37 23:19:32 45° 58° (ENE) 23:23:25 435.950
DELFI C3 28 Apr 23:18:59 23:20:55 13° 267° (W) 23:22:50 145.870
OBJECT BX 28 Apr 23:23:36 23:25:21 13° 267° (W) 23:27:05 145.990 - 145.960
FO-29 28 Apr 23:42:38 23:47:56 82° 284° (WNW) 23:53:42 435.910
TIGRISAT 29 Apr 00:06:29 00:10:07 27° 289° (WNW) 00:13:47 435.000
ESTCUBE 1 29 Apr 00:08:33 00:13:01 71° 258° (WSW) 00:17:32 437.505/2401.250
POLYITAN 1 29 Apr 00:10:37 00:13:45 20° 95° (E) 00:16:53 437.675
VELOX 1 29 Apr 00:11:19 00:15:15 31° 71° (ENE) 00:19:11 145.980
QB50P2 29 Apr 00:17:01 00:20:35 26° 97° (E) 00:24:08 145.880/145.840
LO-87 29 Apr 00:17:52 00:20:42 21° 264° (W) 00:23:32 145.935 - 145.965
AIST 2D 29 Apr 00:24:18 00:27:50 66° 102° (ESE) 00:31:19 435.315
UNISAT 6 29 Apr 00:29:36 00:31:57 15° 293° (WNW) 00:34:19 437.425
50 SAT 29 Apr 00:35:07 00:38:05 27° 72° (ENE) 00:41:04 437.505
NANOSAT C BR1 29 Apr 00:36:07 00:40:00 37° 99° (E) 00:43:53 145.865
SPROUT 29 Apr 00:54:19 00:58:35 87° 259° (W) 01:02:52 437.525
DX 1 29 Apr 00:54:47 00:58:46 35° 72° (ENE) 01:02:46 434.975-435.025
BEESAT 2 29 Apr 00:55:12 00:56:51 12° 252° (WSW) 00:58:29 435.950
DUCHIFAT 1 29 Apr 01:04:17 01:08:28 76° 102° (ESE) 01:12:37 145.980
EO-79 29 Apr 01:05:20 01:09:33 83° 283° (WNW) 01:13:45 145.935-145.965
PCSat 29 Apr 01:23:42 01:28:21 30° 108° (ESE) 01:33:00 145.827
POLYITAN 1 29 Apr 01:45:57 01:49:29 27° 289° (WNW) 01:53:01 437.675
VELOX 1 29 Apr 01:48:27 01:51:42 20° 265° (W) 01:54:57 145.980
UKube-1 29 Apr 01:52:08 01:56:26 70° 258° (WSW) 02:00:46 .
QB50P2 29 Apr 01:53:02 01:56:11 21° 291° (WNW) 01:59:20 145.880/145.840
BUGSAT 1 29 Apr 01:55:46 01:59:48 87° 275° (W) 02:03:47 437.445
50 SAT 29 Apr 02:09:21 02:11:02 13° 266° (W) 02:12:43 437.505
BEESAT 29 Apr 02:10:17 02:12:30 13° 64° (ENE) 02:14:43 436.000
NANOSAT C BR1 29 Apr 02:12:58 02:15:22 15° 292° (WNW) 02:17:47 145.865
DX 1 29 Apr 02:32:10 02:35:01 17° 266° (W) 02:37:51 434.975-435.025
Oscar 19 29 Apr 02:34:14 02:39:26 68° 102° (ESE) 02:44:35 437.125/150
NO-84 29 Apr 02:48:07 02:50:57 57° 46° (NE) 02:53:44 435.350 FM
ITUPSAT 1 29 Apr 02:50:18 02:54:34 35° 71° (ENE) 02:58:52 437.325
Gurwin Techsat 1B 29 Apr 02:56:42 03:01:59 64° 102° (ESE) 03:07:14 435.225
PCSat 29 Apr 03:06:47 03:11:36 32° 304° (WNW) 03:16:27 145.827
MOZHAYETS 4 29 Apr 03:15:46 03:19:40 29° 71° (ENE) 03:23:36
